Location: Killarney Provincial Park Observatory
(46.0124°N, 81.4000°W)
Time: 23:20:05
(UTC-04:00)

Iridium 22 - Visible Passes

Search period start: 24 June 2016 00:00
Search period end: 04 July 2016 00:00
Orbit: 776 x 779 km, 86.4° (Epoch: 24 June)

Date Brightness Start Highest point End Pass type
(mag) Time Alt. Az. Time Alt. Az. Time Alt. Az.
24 Jun 8.1 23:21:32 10° NW 23:24:36 16° WNW 23:27:41 10° WSW visible
25 Jun 7.5 22:47:03 10° NNW 22:51:24 27° W 22:55:44 10° SW visible
26 Jun 6.6 22:13:04 10° NNW 22:18:04 47° W 22:23:03 10° SSW visible
27 Jun 8.4 23:22:59 10° WNW 23:24:27 11° WNW 23:25:55 10° W visible
28 Jun 8.0 22:47:38 10° NNW 22:51:19 20° WNW 22:55:01 10° WSW visible
29 Jun 7.2 22:13:24 10° NNW 22:18:05 34° W 22:22:43 10° SSW visible
01 Jul 8.3 22:48:32 10° NW 22:51:11 14° WNW 22:53:52 10° WSW visible
02 Jul 7.8 22:13:52 10° NNW 22:18:01 25° W 22:22:10 10° SW visible
